www.pogodaiklimat.ru

Погода и климат >> Архив погоды >> Россия >> Ленинградская область >> Сосновый Бор


ПОГОДА в Сосновом Бору

  • Прогноз погоды в Сосновом Бору
  • Монитор погоды в Сосновом Бору

АРХИВ ПОГОДЫ в Сосновом Бору

Время (UTC), дата Ветер
(напр.,м/с)
 
Видим.   Явления Облачность Т
(С)
Тd
(С)
f
(%)
Тe
(С)
Тes
(С)
Комфортность P
(гПа)
Po
(гПа)
Тmin
(С)
Tmax
(С)
R
(мм)
R24
(мм)
S
(см)
09 14.01 ЮВ 3 н/о слаб. снег 10/9
[Frnb As op]
+0.2 -0.2 97 -5 -5 973.2 970.7
15 14.01 ЮВ 2 н/о слаб. снег 10/9
[St As op]
+0.3 0.0 98 -4 -4 973.3 970.8
21 14.01 Ю 2 н/о слаб. ливневой снег 10/9
[Cb cap As op]
+0.3 +0.2 99 -4 -4 976.0 973.5
00 15.01 ЮЗ 4 н/о в посл. час ливневой снег [диам. гололёда мм] 10/10
[Cb cap]
-1.8 -2.9 92 -8 -8 978.6 976.1
06 15.01 ЮЗ 2 н/о 10/10
[Sc]
-2.9 -5.2 84 -7 -7 981.8 979.3 -2.9 0.4 27
12 15.01 Ю 2 н/о 10/10
[St]
-3.1 -4.4 91 -7 -7 984.8 982.2
15 15.01 Ю 3 н/о 10/10
[St]
-3.4 -4.5 92 -9 -9 985.5 982.9
18 15.01 Ю 3 н/о слаб. снег 10/10
[St]
-4.1 -4.7 96 -10 -10 985.5 982.9 -2.8 0.0
21 15.01 ЮЗ 3 н/о слаб. снег 10/0
[As op]
-4.2 -4.7 96 -10 -10 985.9 983.3
00 16.01 ЮЗ 2 н/о снег 10/0
[As op]
-3.8 -4.1 98 -8 -8 986.5 983.9
03 16.01 З 4 н/о слаб. снег 10/0
[As op]
-3.0 -3.9 93 -9 -9 987.8 985.2 -4.4
06 16.01 З 4 н/о слаб. снег 10/0
[As op]
-4.3 -5.9 89 -11 -11 989.7 987.1 -4.4 2 25
09 16.01 СЗ 5 н/о {снег} 10/10
[Sc]
-4.0 -6.0 86 -11 -11 991.9 989.3
12 16.01 СЗ 5
{11}
н/о слаб. снег 10/0
[As op]
-2.8 -5.2 84 -10 -10 993.0 990.4
15 16.01 З 4
{10}
н/о слаб. снег 10/0
[As op]
-3.0 -5.3 84 -9 -9 994.5 991.9
18 16.01 З 4 н/о слаб. снег 10/0
[As op]
-3.0 -6.2 79 -9 -9 994.7 992.1 -2.6 0.2
21 16.01 ЮЗ 2 н/о {снег} 10/10
[St]
-4.5 -6.9 83 -9 -9 995.0 992.4
00 17.01 Ю 3 н/о {снег} 10/10
[Sc]
-5.8 -7.0 91 -11 -11 993.0 990.4
03 17.01 В 4 н/о снег 10/0
[As op]
-5.3 -6.1 94 -12 -12 988.0 985.4 -5.9
06 17.01 ЮВ 3 н/о снег 10/0
[As op]
-4.8 -5.3 96 -10 -10 982.4 979.8 -5.9 5 25
09 17.01 Ю 5 н/о снег 10/0
[As op]
-1.1 -1.4 98 -8 -8 979.4 976.9
15 17.01 ЮЗ 3 н/о снег 10/0
[As op]
+0.3 +0.3 100 -5 -5 977.0 974.5
18 17.01 З 3 н/о {снег} 10/10
[St]
-3.2 -3.8 96 -9 -9 980.8 978.3 +0.5 8
21 17.01 ЮЗ 6
{11}
н/о слаб. ливневой снег 10/10
[Cb cap]
-4.1 -5.5 90 -12 -12 984.5 981.9
00 18.01 З 5
{13}
н/о слаб. ливневой снег 10/10
[Cb cap]
-6.0 -8.0 86 -13 -13 988.8 986.2
03 18.01 З 6-10
{12}
н/о слаб. ливневой снег 9/9
[Cb cap]
-6.3 -9.0 81 -14 -14 991.7 989.1 -6.5
06 18.01 З 5-10
{12}
н/о слаб. ливневой снег {метель} 9/9
[Cb cap]
-5.4 -8.8 77 -12 -12 993.5 990.9 -6.5 0.3
09 18.01 ЮЗ 3 н/о ливневой снег 10/10
[Cb cap]
-5.6 -6.8 91 -11 -11 995.0 992.5
12 18.01 СЗ 4 н/о слаб. ливневой снег 9/9
[Cb cap]
-5.6 -7.3 88 -12 -12 995.9 993.3
15 18.01 З 3 н/о {ливн. осадки} 8/8
[Sc diur, vesp]
-6.0 -9.1 79 -12 -12 997.3 994.7
18 18.01 ЮЗ 1 н/о слаб. ливневой снег 10/10
[Cb cap]
-7.1 -8.3 91 -10 -10 998.0 995.4 -5.1 0.1
21 18.01 СВ 1 н/о ливневой снег 10/10
[Cb cap]
-7.8 -9.3 89 -10 -10 999.6 997.0
03 19.01 З 3 н/о 10/10
[St]
-7.6 -9.8 84 -13 -13 1002.8 1000.2 -8.9
06 19.01 З 4 н/о 9/9
[Cb cap]
-6.9 -8.8 86 -14 -14 1004.3 1001.7 -8.1 0.3 32
09 19.01 ЮЗ 2 н/о слаб. ливневой снег 10/9
[Cb cap Ac As]
-6.3 -8.2 86 -11 -11 1005.7 1003.1
12 19.01 Ю 3 н/о слаб. ливневой снег 8/6
[Cb calv Ac trans]
-6.0 -7.0 93 -12 -12 1005.5 1002.9
15 19.01 ЮЗ 1 н/о {ливн. осадки} 8/6
[Cb calv Ci fib]
-5.0 -5.6 96 -8 -8 1005.5 1002.9
18 19.01 ЮЗ 4 н/о {ливн. осадки} 10/9
[Sc diur, vesp Cs]
-4.4 -5.5 92 -11 -11 1004.4 1001.8 -4.3 0.5
21 19.01 Ю 5 н/о слаб. снег 10/0
[As trans]
-3.9 -5.0 92 -11 -11 1001.8 999.2
00 20.01 ЮЗ 5
{10}
н/о в посл. час ливневой снег 10/3
[Cb cap Cs]
-3.0 -3.4 97 -10 -10 998.3 995.7
03 20.01 Ю 3 н/о 9/9
[Sc]
-3.7 -4.2 96 -9 -9 997.2 994.6 -6.0
06 20.01 Ю 4 н/о в посл. час ливневой снег 9/8
[Cb calv Ci fib]
-4.0 -4.4 97 -10 -10 995.8 993.2 -5.1 3 40

 

Местоположение метеостанции Сосновый Бор (Ленинградская область, Россия): широта 59.82 долгота 29.17 высота над уровнем моря 21 м.

В архиве по умолчанию представлена погода в Сосновом Бору за последнюю неделю. Архивные данные за месяц целиком и за предыдущие месяцы, начиная с января 2011 года, Вы можете получить, выбрав интересующий диапазон дат из раскрывающегося списка и нажав кнопку "Ввод!".


*Определитесь, кто Вы:
робот инопланетянин человек

Внимание! Время в таблицах - всемирное. Для получения местного времени необходимо прибавить поправку, которая равна 3 ч.

Смотрите также архив погоды в соседних городах и на ближайших метеорологических станциях:

Погода в Шепелево (Ленинградская область, Россия) (7 км)
Погода в Ломоносове (город Санкт-Петербург, Россия) (36 км)
Погода в Кронштадте (город Санкт-Петербург, Россия) (37 км)
Погода в Озерках (Ленинградская область, Россия) (43 км)
Погода в Волосово (Ленинградская область, Россия) (47 км)
Погода в Лисьем Носу (город Санкт-Петербург, Россия) (50 км)
Погода в Рощино (Ленинградская область, Россия) (54 км)
Погода в Кингисеппе (Ленинградская область, Россия) (59 км)
Погода в Санкт-Петербурге (город Санкт-Петербург, Россия) (65 км)
Погода в Белогорке (Ленинградская область, Россия) (75 км)

Пояснения к столбцам:

Ветер - указаны скорость ветра в м/с - средняя за 10 мин, порывы в срок и между сроками (в фигурных скобках) и направление, откуда дует ветер: С - северный, СВ - северо-восточный, В - восточный, ЮВ - юго-восточный, Ю - южный, ЮЗ - юго-западный, З - западный, СЗ - северо-западный.
Видимость - горизонтальная дальность видимости в метрах или километрах. При видимости от 1 до 10 км при отсутствии осадков обычно наблюдается дымка, при ухудшении видимости до 1 км и менее - туман. В сухую погоду видимость может ухудшаться дымом, пылью или мглою.
Явления - указаны атмосферные явления, наблюдавшиеся в срок или в последний час перед сроком; фигурными скобками обозначены явления, наблюдавшиеся между сроками (за 1-3 часа до срока); квадратными скобками обозначены град или гололедные отложения с указанием их диаметра в мм.
Облачность - указаны через наклонную черту общая и нижняя облачность в баллах и высота нижней границы облаков в метрах; квадратными скобками обозначены формы облаков: Ci - перистые, Cs - перисто-слоистые, Cc - перисто-кучевые, Ac - высококучевые, As - высокослоистые, Sc - слоисто-кучевые, Ns - слоисто-дождевые, Cu - кучевые, Cb - кучево-дождевые. Подробнее классификацию облаков см. в Атласе облаков (PDF).
T - Температура воздуха - температура, измеренная на высоте 2 м над землей.
Td - Температура точки росы - температура, при понижении до которой содержащийся в воздухе водяной пар достигнет насыщения.
f - Относительная влажность воздуха - влажноcть воздуха, измеренная на высоте 2 м над землей.
Te - Эффективная температура - температура, которую ощущает одетый по сезону человек в тени. Характеристика душности погоды. При расчете учитывается влияние влажности воздуха и скорости ветра на теплоощущения человека.
Tes - Эффективная температура на солнце - температура, которую ощущает человек, с поправкой на солнечный нагрев. Характеристика знойности погоды. Зависит от высоты солнца над горизонтом, облачности и скорости ветра. Ночью, в пасмурную погоду, а также при ветре 12 м/с и более поправка равна нулю.
P - Атмосферное давление - приведенное к уровню моря атмосферное давление.
Po - Атмосферное давление - измеренное на уровне метеостанции атмосферное давление.
Tmin - Минимальная температура - минимум температуры воздуха на высоте 2 м над землей.
Tmax - Максимальная температура - максимум температуры воздуха на высоте 2 м над землей.
R - Количество осадков - Количество выпавших осадков за период времени, мм. При наведении курсора мыши на число - период времени, за который выпало указанное количество осадков.
R24 - Количество осадков - Количество выпавших осадков за 24 часа, мм.
S - Снежный покров - Высота снежного покрова, см. При наведении курсора мыши на число - состояние снежного покрова и степень покрытия местности в баллах.